Preview of NWS' New Version of Forecast
This preview is not operational and should not be used for support decisions.

Regional Weather Roundup (RWR)

Issued by National Weather Service (NWS)

                            
000
ASUS43 KLSX 191407
RWRMO 

WEATHER SUMMARY FOR MISSOURI
NATIONAL WEATHER SERVICE SPRINGFIELD MO
900 AM CDT FRI APR 19 2019

NOTE: "FAIR" INDICATES FEW OR NO CLOUDS BELOW 12,000 FEET WITH NO
       SIGNIFICANT WEATHER AND/OR OBSTRUCTIONS TO VISIBILITY.
       CURRENT SKY AND/OR WEATHER CONDITIONS ARE NOT AVAILABLE FOR
       CHILLICOTHE AND FARMINGTON.

MOZ001>031-035>038-043-044-053-054-191500-
...NORTHERN AND WESTERN MISSOURI...
  
CITY           SKY/WX    TMP DP  RH WIND       PRES   REMARKS
KANSAS CTY INT SUNNY     50  39  66 N16       30.03R                  
KANSAS C DTWN  SUNNY     50  39  66 N10       30.03R                  
LEE'S SUMMIT   SUNNY     49  38  65 N17       30.02R                  
ST JOSEPH      SUNNY     50  40  68 N16       30.07R                  
CHILLICOTHE      N/A     49  38  65 N10G25    30.02R                  
KIRKSVILLE     SUNNY     48  38  68 N16G28    29.98R                  
     
$$
MOZ066>068-077>081-088>096-101>105-191500-
...SOUTHWEST MISSOURI...
  
CITY           SKY/WX    TMP DP  RH WIND       PRES   REMARKS
SPRINGFIELD    PTSUNNY   48  38  68 N22G30    29.92R                  
JOPLIN         MOSUNNY   50  41  71 N18G25    30.01R                  
BRANSON        PTSUNNY   46  39  76 NW16G23   29.92R                  
               
$$
MOZ032>034-039>042-045>050-055>058-069>072-191500-
...CENTRAL MISSOURI...  
  
CITY           SKY/WX    TMP DP  RH WIND       PRES   REMARKS
COLUMBIA       CLOUDY    46  36  68 N18       29.93R                  
JEFFERSON CITY CLOUDY    47  34  60 N12G25    29.93R                  
ROLLA          CLOUDY    44  35  70 N17G29    29.88R                  
SEDALIA        PTSUNNY   47  41  80 N16G35    29.98R                  
WHITEMAN AFB   MOSUNNY   48  41  75 N17G25    29.95R                  
WARRENSBURG    SUNNY     46  39  76 NW13      30.00S                  
OSAGE BEACH    CLOUDY    47  36  65 N14G23    29.93R                  
               
$$
MOZ051-052-059>065-191500-
...EAST CENTRAL MISSOURI...
  
CITY           SKY/WX    TMP DP  RH WIND       PRES   REMARKS
ST LOUIS INTL  CLOUDY    46  37  71 N17G28    29.84R                  
SPIRIT OF STL  CLOUDY    47  38  71 N13G23    29.85R                  
ST CHARLES     CLOUDY    47  38  71 N14G25    29.85R                  
                   
$$
MOZ072>076-082>087-097>100-106>115-191500-
...SOUTH CENTRAL AND SOUTHEAST MISSOURI...
  
CITY           SKY/WX    TMP DP  RH WIND       PRES   REMARKS
CAPE GIRARDEAU CLOUDY    46  42  86 N15G23    29.74S                  
FARMINGTON     CLOUDY    45  39  79 N13G21    29.80S                  
POPLAR BLUFF   CLOUDY    48  40  73 N20G31    29.76S                  
WEST PLAINS    CLOUDY    46  37  71 N12G22    29.84R                  
                                       
$$